GW3300 Weather Reports


Display with metric or nautical units.
time (UTC)temp
F
wind
direction
speed
MPH
gust
MPH
rain 1hr
in
rain 24hr
in
rain mn
in
humidity
%
barometer
mb
20260507062520 54 0.0 1.0 0.00 0.00 0.00 82 1021.9
20260507062023 54 332 0.0 1.0 0.00 0.00 0.00 82 1021.9
20260507061520 54 204 0.0 1.0 0.00 0.00 0.00 81 1022.0
20260507061027 54 220 0.0 1.0 0.00 0.00 0.00 82 1021.9
20260507060526 54 0.0 1.0 0.00 0.00 0.00 82 1022.0
20260507060025 54 296 0.0 1.0 0.00 0.00 0.00 82 1021.9
20260507055529 54 0.0 1.0 0.00 0.00 0.00 81 1022.1
20260507055025 54 212 0.0 2.0 0.00 0.00 0.00 81 1021.9
20260507054519 54 188 1.0 3.0 0.00 0.00 0.00 82 1022.0
20260507054025 54 232 1.0 3.0 0.00 0.00 0.00 81 1021.9
20260507053529 54 272 0.0 2.0 0.00 0.00 0.00 81 1022.0
20260507053024 54 19 0.0 1.0 0.00 0.00 0.00 81 1022.0
20260507052544 54 231 0.0 2.0 0.00 0.00 0.00 81 1022.0
20260507052023 54 211 0.0 1.0 0.00 0.00 0.00 82 1021.9
20260507051523 54 357 0.0 1.0 0.00 0.00 0.00 81 1021.9
20260507051028 54 286 0.0 2.0 0.00 0.00 0.00 82 1022.0
20260507050525 54 312 0.0 2.0 0.00 0.00 0.00 81 1022.0
20260507050019 54 76 0.0 1.0 0.00 0.00 0.00 81 1022.0
20260507045543 54 277 0.0 2.0 0.00 0.00 0.00 81 1022.0
20260507045025 55 133 0.0 2.0 0.00 0.00 0.00 81 1022.1
20260507044529 55 189 0.0 2.0 0.00 0.00 0.00 80 1022.1
20260507044040 55 8 0.0 1.0 0.00 0.00 0.00 80 1022.0
20260507043548 55 52 0.0 1.0 0.00 0.00 0.00 81 1022.1
20260507043025 55 48 0.0 1.0 0.00 0.00 0.00 81 1022.1
20260507042523 55 217 0.0 2.0 0.00 0.00 0.00 80 1022.1
20260507042026 55 230 1.0 2.0 0.00 0.00 0.00 80 1022.0
20260507041545 55 0.0 1.0 0.00 0.00 0.00 80 1022.0
20260507041023 55 233 0.0 1.0 0.00 0.00 0.00 80 1022.0
20260507040520 55 301 0.0 1.0 0.00 0.00 0.00 79 1022.0
20260507040023 55 259 0.0 2.0 0.00 0.00 0.00 79 1021.9
20260507035519 56 266 0.0 2.0 0.00 0.00 0.00 79 1021.9
20260507035024 56 280 1.0 2.0 0.00 0.00 0.00 79 1021.8
20260507034523 56 165 0.0 2.0 0.00 0.00 0.00 79 1021.7
20260507034024 56 201 1.0 2.0 0.00 0.00 0.00 79 1021.6
20260507033529 56 53 1.0 4.0 0.00 0.00 0.00 78 1021.6
20260507033104 56 146 1.0 2.0 0.00 0.00 0.00 78 1021.5
20260507032523 56 256 1.0 3.0 0.00 0.00 0.00 78 1021.6
20260507032025 56 60 2.0 7.0 0.00 0.00 0.00 78 1021.4
20260507031523 56 338 1.0 2.0 0.00 0.00 0.00 78 1021.5
20260507031023 57 262 1.0 4.0 0.00 0.00 0.00 78 1021.5
20260507030524 57 8 1.0 4.0 0.00 0.00 0.00 78 1021.4
20260507030023 57 53 1.0 4.0 0.00 0.00 0.00 78 1021.3
20260507025520 57 235 0.0 3.0 0.00 0.00 0.00 78 1021.4
20260507025024 57 250 1.0 2.0 0.00 0.00 0.00 78 1021.2
20260507024547 58 350 1.0 3.0 0.00 0.00 0.00 78 1021.1
20260507024043 58 263 0.0 1.0 0.00 0.00 0.00 78 1021.1
20260507023523 58 211 0.0 2.0 0.00 0.00 0.00 78 1021.0
20260507023025 58 248 0.0 3.0 0.00 0.00 0.00 78 1021.0
20260507022523 58 219 1.0 4.0 0.00 0.00 0.00 78 1020.9
20260507022023 58 82 0.0 2.0 0.00 0.00 0.00 77 1021.0
20260507021523 59 268 1.0 4.0 0.00 0.00 0.00 77 1021.1
20260507021020 59 217 1.0 2.0 0.00 0.00 0.00 76 1020.9
20260507020528 59 315 1.0 2.0 0.00 0.00 0.00 76 1020.8
20260507020024 60 312 0.0 2.0 0.00 0.00 0.00 76 1021.0
20260507015524 60 165 0.0 2.0 0.00 0.00 0.00 76 1021.0
20260507015020 0 214 1.0 4.0 0.00 0.00 0.00 1021.0
20260507014524 60 46 1.0 3.0 0.00 0.00 0.00 76 1021.0
20260507014019 0 66 2.0 6.0 0.00 0.00 0.00 1021.0
20260507013523 61 352 1.0 2.0 0.00 0.00 0.00 74 1021.1
20260507013048 61 257 0.0 3.0 0.00 0.00 0.00 75 1020.9
20260507012523 61 277 0.0 2.0 0.00 0.00 0.00 74 1021.1
20260507012023 61 244 1.0 3.0 0.00 0.00 0.00 74 1021.1
20260507011523 61 37 2.0 6.0 0.00 0.00 0.00 75 1021.0
20260507011023 61 219 1.0 2.0 0.00 0.00 0.00 74 1021.1
20260507010519 62 104 0.0 2.0 0.00 0.00 0.00 75 1021.1
20260507010025 62 91 0.0 2.0 0.00 0.00 0.00 74 1021.1
20260507005540 62 1 1.0 3.0 0.00 0.00 0.00 73 1021.1
20260507005023 62 156 1.0 2.0 0.00 0.00 0.00 73 1021.1
20260507004526 62 92 1.0 4.0 0.00 0.00 0.00 73 1021.1
20260507004020 62 257 1.0 3.0 0.00 0.00 0.00 74 1021.0
20260507003523 62 268 1.0 2.0 0.00 0.00 0.00 73 1021.0
20260507003026 62 243 1.0 3.0 0.00 0.00 0.00 73 1021.0
20260507002525 63 244 1.0 5.0 0.00 0.00 0.00 73 1020.9
20260507002024 63 33 1.0 3.0 0.00 0.00 0.00 74 1020.9
20260507001523 63 239 1.0 3.0 0.00 0.00 0.00 73 1020.8
20260507001024 63 331 1.0 2.0 0.00 0.00 0.00 73 1020.8
20260507000523 63 198 1.0 3.0 0.00 0.00 0.00 73 1020.8
20260507000023 63 245 1.0 2.0 0.00 0.00 0.00 73 1020.8
20260506235518 63 8 1.0 3.0 0.00 0.00 0.00 73 1020.8
20260506235027 63 307 1.0 3.0 0.00 0.00 0.00 73 1020.9
20260506234523 63 344 2.0 3.0 0.00 0.00 0.00 73 1020.8
20260506234023 64 248 1.0 3.0 0.00 0.00 0.00 72 1020.8
20260506233524 64 1 2.0 4.0 0.00 0.00 0.00 72 1020.9
20260506233028 64 52 1.0 3.0 0.00 0.00 0.00 73 1020.9
20260506232523 64 277 1.0 3.0 0.00 0.00 0.00 72 1020.8
20260506232024 64 318 1.0 3.0 0.00 0.00 0.00 72 1020.8
20260506231525 64 183 1.0 4.0 0.00 0.00 0.00 72 1020.9
20260506231023 64 315 2.0 3.0 0.00 0.00 0.00 71 1020.8
20260506230550 64 266 2.0 4.0 0.00 0.00 0.00 71 1020.9
20260506230024 64 6 1.0 3.0 0.00 0.00 0.00 72 1020.9
20260506225523 64 129 1.0 3.0 0.00 0.00 0.00 73 1020.9
20260506225023 63 31 1.0 3.0 0.00 0.00 0.00 74 1021.0
20260506224526 63 209 2.0 3.0 0.00 0.00 0.00 74 1021.0
20260506224027 63 189 2.0 4.0 0.00 0.00 0.00 74 1021.0
20260506223523 63 166 2.0 4.0 0.00 0.00 0.00 74 1021.1
20260506223030 63 132 1.0 3.0 0.00 0.00 0.00 74 1021.1
20260506222524 63 343 1.0 3.0 0.00 0.00 0.00 74 1021.2
20260506222023 63 342 1.0 3.0 0.00 0.00 0.00 75 1021.2
20260506221522 63 168 2.0 3.0 0.00 0.00 0.00 75 1021.3
20260506221022 63 342 1.0 2.0 0.00 0.00 0.00 76 1021.4
20260506220530 63 303 0.0 3.0 0.00 0.00 0.00 77 1021.4
20260506220048 63 46 2.0 3.0 0.00 0.00 0.00 76 1021.4
20260506215523 63 46 0.0 2.0 0.00 0.00 0.00 78 1021.4
20260506215024 62 190 1.0 3.0 0.00 0.00 0.00 78 1021.4
20260506214528 62 78 1.0 2.0 0.00 0.00 0.00 78 1021.4
20260506214023 62 157 1.0 3.0 0.00 0.00 0.00 79 1021.4
20260506213538 62 346 1.0 3.0 0.00 0.00 0.00 79 1021.5
20260506213034 62 265 1.0 2.0 0.00 0.00 0.00 79 1021.4
20260506212527 61 40 0.0 1.0 0.00 0.00 0.00 80 1021.5
20260506212025 61 354 1.0 2.0 0.00 0.00 0.00 79 1021.5
20260506211519 61 0.0 1.0 0.00 0.00 0.00 79 1021.5
20260506211022 61 16 0.0 2.0 0.00 0.00 0.00 80 1021.6
20260506210522 61 344 1.0 3.0 0.00 0.00 0.00 80 1021.6
20260506210046 61 238 1.0 2.0 0.00 0.00 0.00 81 1021.7
20260506205525 61 180 1.0 3.0 0.00 0.00 0.00 81 1021.7
20260506205024 61 175 1.0 2.0 0.00 0.00 0.00 82 1021.7
20260506204522 61 60 1.0 3.0 0.00 0.00 0.00 81 1021.8
20260506204104 60 18 2.0 3.0 0.00 0.00 0.00 81 1021.7
20260506203540 60 16 2.0 4.0 0.00 0.00 0.00 81 1021.8
20260506203031 60 168 1.0 3.0 0.00 0.00 0.00 82 1021.9
20260506202528 60 158 1.0 2.0 0.00 0.00 0.00 84 1021.8
20260506202025 60 333 1.0 2.0 0.00 0.00 0.00 82 1021.8
20260506201523 60 329 0.0 2.0 0.00 0.00 0.00 82 1021.7
20260506201022 60 81 0.0 2.0 0.00 0.00 0.00 84 1021.7
20260506200524 60 206 0.0 3.0 0.00 0.00 0.00 83 1021.6
20260506200022 59 241 0.0 2.0 0.00 0.00 0.00 85 1021.7
20260506195522 59 55 0.0 1.0 0.00 0.00 0.00 85 1021.7
20260506195045 59 355 0.0 2.0 0.00 0.00 0.00 85 1021.7
20260506194527 59 91 0.0 2.0 0.00 0.00 0.00 85 1021.8
20260506194108 59 164 1.0 2.0 0.00 0.00 0.00 85 1021.9
20260506193523 59 167 0.0 2.0 0.00 0.00 0.00 85 1022.0
20260506193024 59 170 1.0 3.0 0.00 0.00 0.00 85 1021.9
20260506192522 59 62 0.0 2.0 0.00 0.00 0.00 84 1021.9
20260506192024 59 118 1.0 2.0 0.00 0.00 0.00 84 1021.9
20260506191522 59 201 0.0 2.0 0.00 0.00 0.00 86 1021.9
20260506191038 59 225 0.0 2.0 0.00 0.00 0.00 86 1022.0
20260506190523 59 52 0.0 2.0 0.00 0.00 0.00 85 1021.8
20260506190019 58 135 0.0 2.0 0.00 0.00 0.00 84 1021.9
20260506185518 59 267 0.0 1.0 0.00 0.00 0.00 84 1021.7
20260506185019 59 268 0.0 2.0 0.00 0.00 0.00 85 1021.8
20260506184522 58 242 0.0 1.0 0.00 0.00 0.00 85 1021.7
20260506184019 58 73 0.0 1.0 0.00 0.00 0.00 85 1021.8
20260506183528 58 142 0.0 1.0 0.00 0.00 0.00 84 1021.7
20260506183022 58 250 1.0 2.0 0.00 0.00 0.00 84 1021.8
20260506182530 58 36 0.0 2.0 0.00 0.00 0.00 85 1021.7
20260506182024 58 25 1.0 3.0 0.00 0.00 0.00 86 1021.7
20260506181520 58 166 1.0 3.0 0.00 0.00 0.00 85 1021.8
20260506181022 58 186 0.0 2.0 0.00 0.00 0.00 87 1021.7
20260506180523 58 181 0.0 2.0 0.00 0.00 0.00 88 1021.6
20260506180025 57 16 1.0 2.0 0.00 0.00 0.00 86 1021.7
20260506175527 57 39 1.0 2.0 0.00 0.00 0.00 87 1021.7
20260506175023 57 198 1.0 3.0 0.00 0.00 0.00 86 1021.8
20260506174518 57 96 1.0 2.0 0.00 0.00 0.00 87 1021.7
20260506174018 57 339 1.0 2.0 0.00 0.00 0.00 88 1021.8
20260506173523 57 111 0.0 1.0 0.00 0.00 0.00 88 1021.5
20260506173018 56 142 0.0 1.0 0.00 0.00 0.00 87 1021.5
20260506172518 56 164 0.0 1.0 0.00 0.00 0.00 87 1021.5
20260506172024 56 217 1.0 2.0 0.00 0.00 0.00 87 1021.4
20260506171523 56 28 0.0 2.0 0.00 0.00 0.00 87 1021.5
20260506171019 56 356 1.0 2.0 0.00 0.00 0.00 87 1021.4
20260506170522 56 154 0.0 2.0 0.00 0.00 0.00 88 1021.4
20260506170023 56 142 0.0 1.0 0.00 0.00 0.00 88 1021.4
20260506165525 56 252 1.0 2.0 0.00 0.00 0.00 88 1021.4
20260506165030 55 35 1.0 2.0 0.00 0.00 0.00 89 1021.3
20260506164519 55 174 1.0 2.0 0.00 0.00 0.00 89 1021.4
20260506164025 55 232 0.0 2.0 0.00 0.00 0.00 89 1021.6
20260506163525 55 119 0.0 1.0 0.00 0.00 0.00 89 1021.4
20260506163018 55 283 0.0 2.0 0.00 0.00 0.00 89 1021.5
20260506162522 55 31 1.0 3.0 0.00 0.00 0.00 89 1021.4
20260506162026 55 341 0.0 2.0 0.00 0.00 0.00 89 1021.4
20260506161522 55 0.0 1.0 0.00 0.00 0.00 89 1021.4
20260506161022 55 125 0.0 1.0 0.00 0.00 0.00 90 1021.4
20260506160522 55 205 0.0 1.0 0.00 0.00 0.00 89 1021.3
20260506160018 55 310 0.0 1.0 0.00 0.00 0.00 89 1021.1
20260506155539 55 213 0.0 1.0 0.00 0.00 0.00 89 1021.1
20260506155024 55 208 0.0 1.0 0.00 0.00 0.00 90 1020.9
20260506154539 55 301 0.0 2.0 0.00 0.00 0.00 90 1020.7
20260506154019 55 262 1.0 2.0 0.00 0.00 0.00 90 1020.7
20260506153528 54 153 0.0 1.0 0.00 0.00 0.00 89 1020.5
20260506153022 54 130 0.0 1.0 0.00 0.00 0.00 89 1020.8
20260506152519 54 132 0.0 2.0 0.00 0.00 0.00 90 1020.8
20260506152019 54 311 0.0 1.0 0.00 0.00 0.00 90 1021.0
20260506151543 54 0.0 1.0 0.00 0.00 0.00 90 1020.9
20260506151019 54 0.0 0.0 0.00 0.00 0.00 91 1021.1
20260506150519 54 178 0.0 1.0 0.00 0.00 0.00 91 1021.2
20260506150022 54 0.0 1.0 0.00 0.00 0.00 91 1021.3
20260506145542 54 326 0.0 1.0 0.00 0.00 0.00 92 1021.3
20260506145024 54 0.0 1.0 0.00 0.00 0.00 92 1021.2
20260506144547 54 225 0.0 1.0 0.00 0.00 0.00 92 1021.1
20260506144042 53 332 0.0 1.0 0.00 0.00 0.00 92 1021.0
20260506143522 53 0.0 1.0 0.00 0.00 0.00 92 1020.9
20260506143027 53 0.0 0.0 0.00 0.00 0.00 92 1021.0
20260506142522 53 0.0 0.0 0.00 0.00 0.00 92 1021.0
20260506142024 53 0.0 1.0 0.00 0.00 0.00 93 1020.9
20260506141524 53 0.0 1.0 0.00 0.00 0.00 93 1020.7
20260506141018 53 0.0 0.0 0.00 0.00 0.00 93 1020.6
20260506140522 53 0.0 1.0 0.00 0.00 0.00 93 1020.5
20260506140019 53 138 0.0 1.0 0.00 0.00 0.00 93 1020.4
20260506135528 53 0.0 0.0 0.00 0.00 0.00 93 1020.4
20260506135022 53 0.0 1.0 0.00 0.00 0.00 93 1020.5
20260506134522 53 0.0 0.0 0.00 0.00 0.00 93 1020.4
20260506134024 53 0.0 1.0 0.00 0.00 0.00 93 1020.3
20260506133519 53 0.0 1.0 0.00 0.00 0.00 93 1020.2
20260506133022 53 0.0 1.0 0.00 0.00 0.00 93 1020.3
20260506132519 53 0.0 0.0 0.00 0.00 0.00 93 1020.3
20260506132028 53 0.0 0.0 0.00 0.00 0.00 94 1020.3
20260506131524 53 0.0 1.0 0.00 0.01 0.00 94 1020.3
20260506131022 53 0.0 0.0 0.00 0.01 0.00 93 1020.1
20260506130524 53 0.0 0.0 0.00 0.01 0.00 93 1019.9
20260506130039 53 0.0 0.0 0.00 0.01 0.00 93 1019.8
20260506125522 53 0.0 1.0 0.00 0.01 0.00 93 1019.9
20260506125019 53 0.0 1.0 0.00 0.01 0.00 93 1019.8
20260506124519 53 0.0 0.0 0.00 0.01 0.00 93 1019.7
20260506124027 54 0.0 1.0 0.00 0.01 0.00 93 1019.7
20260506123524 54 0.0 0.0 0.00 0.01 0.00 93 1019.6
20260506123019 54 0.0 0.0 0.00 0.01 0.00 93 1019.6
20260506122522 54 0.0 0.0 0.00 0.01 0.00 93 1019.8
20260506122042 54 0.0 0.0 0.00 0.01 0.00 93 1019.7
20260506121524 54 0.0 1.0 0.00 0.01 0.00 93 1019.6
20260506121022 54 0.0 0.0 0.00 0.01 0.00 92 1019.7
20260506120522 54 0.0 1.0 0.00 0.01 0.00 93 1019.7
20260506120019 54 0.0 1.0 0.00 0.01 0.00 93 1019.7
20260506115524 54 0.0 0.0 0.00 0.01 0.00 93 1019.7
20260506115026 54 0.0 0.0 0.00 0.01 0.00 93 1019.7
20260506114542 54 0.0 0.0 0.00 0.01 0.00 93 1019.7
20260506114023 54 0.0 1.0 0.00 0.01 0.00 93 1019.5
20260506113522 54 0.0 0.0 0.00 0.01 0.00 93 1019.4
20260506113024 54 0.0 0.0 0.00 0.01 0.00 93 1019.3
20260506112522 54 0.0 0.0 0.00 0.01 0.00 93 1019.4
20260506112047 54 0.0 0.0 0.00 0.01 0.00 93 1019.5
20260506111526 54 0.0 0.0 0.00 0.01 0.00 93 1019.4
20260506111043 54 0.0 0.0 0.00 0.01 0.00 93 1019.3
20260506110523 54 0.0 0.0 0.00 0.01 0.00 93 1019.3
20260506110022 54 0.0 0.0 0.00 0.01 0.00 93 1019.2
20260506105519 54 0.0 0.0 0.00 0.01 0.00 93 1019.2
20260506105022 54 0.0 0.0 0.00 0.01 0.00 93 1019.1
20260506104524 54 0.0 0.0 0.00 0.01 0.00 93 1019.0
20260506104026 54 0.0 0.0 0.00 0.01 0.00 93 1019.0
20260506103522 54 0.0 0.0 0.00 0.01 0.00 93 1019.0
20260506103026 54 0.0 0.0 0.00 0.01 0.00 93 1018.9
20260506102542 54 0.0 0.0 0.00 0.01 0.00 93 1018.9
20260506102024 54 0.0 0.0 0.00 0.01 0.00 92 1018.8
20260506101603 54 0.0 0.0 0.00 0.01 0.00 92 1018.7
20260506101046 54 0.0 0.0 0.00 0.01 0.00 92 1018.6
20260506100522 54 0.0 0.0 0.00 0.01 0.00 92 1018.6
20260506100024 54 0.0 0.0 0.00 0.01 0.00 92 1018.6
20260506095526 54 0.0 0.0 0.00 0.01 0.00 92 1018.7
20260506095022 54 0.0 0.0 0.00 0.01 0.00 92 1018.5
20260506094522 54 0.0 0.0 0.00 0.01 0.00 92 1018.6
20260506094024 54 0.0 0.0 0.00 0.01 0.00 92 1018.5
20260506093544 54 0.0 0.0 0.00 0.01 0.00 92 1018.5
20260506093021 54 0.0 0.0 0.00 0.01 0.00 93 1018.4
20260506092521 54 0.0 0.0 0.00 0.01 0.00 93 1018.5
20260506092022 54 0.0 0.0 0.00 0.01 0.00 92 1018.5
20260506091544 55 0.0 0.0 0.00 0.01 0.00 93 1018.4
20260506091022 54 0.0 0.0 0.00 0.01 0.00 93 1018.4
20260506090522 55 0.0 0.0 0.00 0.01 0.00 93 1018.4
20260506090027 54 0.0 0.0 0.00 0.01 0.00 92 1018.5
20260506085521 55 0.0 0.0 0.00 0.01 0.00 92 1018.4
20260506085042 55 0.0 0.0 0.00 0.01 0.00 93 1018.5
20260506084531 55 0.0 1.0 0.00 0.01 0.00 93 1018.5
20260506084041 55 0.0 1.0 0.00 0.01 0.00 93 1018.4
20260506083522 55 221 0.0 2.0 0.00 0.01 0.00 93 1018.3
20260506083023 55 0.0 0.0 0.00 0.01 0.00 93 1018.4
20260506082525 55 231 0.0 1.0 0.00 0.01 0.00 93 1018.4
20260506082021 55 38 0.0 1.0 0.00 0.01 0.00 93 1018.3
20260506081522 55 196 0.0 1.0 0.00 0.01 0.00 93 1018.3
20260506081025 55 0.0 1.0 0.00 0.01 0.00 93 1018.2
20260506080524 55 0.0 0.0 0.00 0.01 0.00 93 1018.3
20260506073045 55 0.0 0.0 0.00 0.01 0.00 92 1018.1
20260506072528 55 0.0 0.0 0.00 0.01 0.00 93 1018.0
20260506072025 54 0.0 0.0 0.00 0.01 0.00 93 1018.0
20260506071546 54 0.0 0.0 0.00 0.01 0.00 93 1018.0
20260506071026 54 0.0 0.0 0.00 0.01 0.00 93 1017.9
20260506070523 54 0.0 0.0 0.00 0.01 0.00 93 1017.9